Regional Weather Roundup
Issued by NWS Burlington, VT

Home | Current Version | Previous Version | Text Only | Print | Product List | Glossary On
Versions: 1 2 3 4 5 6 7 8 9 10 11 12 13 14 15 16 17 18 19 20 21 22 23 24 25 26 27 28 29 30 31 32 33 34 35 36 37 38 39 40 41 42 43 44 45 46 47 48 49 50
000
ASUS41 KBTV 021730
RWRBTV
VERMONT REGIONAL WEATHER ROUNDUP
NATIONAL WEATHER SERVICE BURLINGTON VT
100 PM EDT WED SEP 02 2015

NOTE: "FAIR" INDICATES FEW OR NO CLOUDS BELOW 12,000 FEET WITH NO
SIGNIFICANT WEATHER AND/OR OBSTRUCTIONS TO VISIBILITY.

* THESE REPORTS ARE NOT UNDER NWS QUALITY CONTROL AND/OR DO NOT
  REPORT WEATHER SUCH AS PRECIPITATION AND FOG.

VTZ001>019-021800-
_____VERMONT_____


CITY           SKY/WX    TMP DP  RH WIND       PRES   REMARKS
BURLINGTON     PTSUNNY   83  65  54 VRB3      29.96F
MONTPELIER     SUNNY     80  66  62 N5        30.02F
MORRISVILLE    MOSUNNY   82  65  56 CALM      29.99F
ST. JOHNSBURY*   N/A     79  63  57 MISG      29.95F
LYNDONVILLE*   FAIR      80  65  60 W8        30.01S
MIDDLEBURY*    FAIR      83  61  47 CALM      29.97F
RUTLAND*       MOSUNNY   79  63  57 CALM      30.00F
SPRINGFIELD    SUNNY     82  64  54 VRB3      29.97F
HIGHGATE*      FAIR      80  68  67 CALM      29.96F
NEWPORT*       FAIR      77  66  69 N8        29.99S
BENNINGTON     MOSUNNY   80  65  59 W3        30.00F
GALLUP MILLS*    N/A     79 N/A N/A MISG        N/A
MT. MANSFIELD*   N/A     66 N/A N/A NW16        N/A

_____LAKE CHAMPLAIN_____


CITY           SKY/WX    TMP DP  RH WIND       PRES   REMARKS
COLCHESTER RF*   N/A     75  70  83 S7          N/A
DIAMOND ISL*     N/A     77  66  69 SW2         N/A

$$

NYZ007-026>031-035-052-083-021800-
_____NORTHERN NEW YORK_____


CITY           SKY/WX    TMP DP  RH WIND       PRES   REMARKS
PLATTSBURGH    SUNNY     78  67  68 SE9       29.95F
SARANAC LAKE   MOSUNNY   79  63  57 SW9       30.02F
MASSENA        CLOUDY    76  68  76 W7        29.98F HAZE
OGDENSBURG*    MOSUNNY   79  70  73 W5        29.98F HAZE
POTSDAM*       CLOUDY    73  73 100 SW6       29.99F
STARK FALLS*     N/A     79 N/A N/A W5          N/A
WATERTOWN      CLOUDY    76  69  79 SW9       30.00F HAZE
FT DRUM        CLOUDY    74  69  85 W8        30.00F
ALBANY         MOSUNNY   85  66  53 N5        29.98F
GLENS FALLS    SUNNY     80  64  58 SE6       29.98F

$$
NHZ002-005-011-021800-
_____NEW HAMPSHIRE_____


CITY           SKY/WX    TMP DP  RH WIND       PRES   REMARKS
LEBANON        SUNNY     82  62  50 CALM      29.96F
KEENE          SUNNY     81  63  54 SE3       29.96F
MT WASHINGTON  MOSUNNY   64  34  32 W20         N/A
PLYMOUTH       FAIR      83  62  49 W7        29.94S
WHITEFIELD     SUNNY     81  64  56 VRB5      29.98F

$$

_____REGIONAL QUEBEC LOCATIONS_____


CITY           SKY/WX    TMP DP  RH WIND       PRES   REMARKS
MONTREAL       PTSUNNY   75  68  78 W13       29.96S
QUEBEC CITY    CLOUDY    72  70  94 SW15      29.90F FOG
SHERBROOKE     PTSUNNY   77  66  69 W9        29.97S

_____REGIONAL ONTARIO LOCATIONS_____


CITY           SKY/WX    TMP DP  RH WIND       PRES   REMARKS
OTTAWA         CLOUDY    73  68  83 W5        29.98F

______KEY______
VSB  - VISIBILITY IN MILES
WCI  - WIND CHILL INDEX
HX   - HEAT INDEX
$$
NNNN


USA.gov is the U.S. government's official web portal to all federal, state and local government web resources and services.